GEFSSGP_850_meantemp_156.txt.gz
Temperature
16 16 16 16 13 12 13 14 16 18 19 21 22 22 20 20 20 20 20 20 19 18 17 16 16 16 16 15 15 15 15 15 15 15 15 14 14 14 13 13 13 13 13 13 13 13 13 13 12
15 15 15 15 12 12 13 14 16 18 20 22 22 21 20 19 20 20 20 19 19 18 17 16 15 15 15 15 15 15 15 15 14 14 14 14 14 13 13 13 13 13 13 13 13 13 12 12 12
15 15 15 12 12 13 14 16 17 19 21 21 21 21 20 20 20 21 21 19 18 17 17 16 15 15 15 15 15 15 14 14 14 14 14 13 13 13 13 13 12 12 12 13 13 13 12 12 12
15 15 14 12 13 14 15 16 17 18 20 21 21 19 20 20 21 21 20 19 18 17 16 16 15 15 15 15 15 14 14 14 14 13 13 13 13 12 12 12 12 12 12 12 12 12 12 12 12
14 14 13 12 13 15 15 17 18 18 19 21 20 18 19 20 20 21 20 19 18 17 16 16 15 15 15 14 14 14 14 13 13 13 13 13 12 12 12 12 12 12 12 12 12 12 12 12 11
14 12 12 13 14 15 16 18 18 17 18 20 19 18 18 19 20 20 20 19 18 17 16 15 15 15 14 14 14 14 13 13 13 13 13 12 12 12 12 12 12 12 12 12 12 12 12 12 11
13 12 12 13 14 15 17 18 18 17 17 20 20 17 17 18 19 19 19 18 17 16 16 15 14 14 14 14 14 13 13 13 13 13 13 12 12 12 12 12 12 12 12 12 12 12 12 12 11
13 12 13 13 14 15 17 19 20 19 19 21 21 17 16 17 18 18 17 16 16 15 15 15 14 14 14 14 13 13 13 13 13 13 13 12 12 12 12 12 12 12 12 12 12 12 12 11 11
13 12 12 13 14 15 18 18 19 20 21 20 21 21 21 19 17 16 15 15 15 14 14 14 14 14 14 13 13 13 13 13 13 12 12 12 12 12 12 12 12 12 12 12 12 12 12 11 11
12 12 13 15 15 16 17 18 19 19 18 18 19 20 20 18 17 16 15 15 14 14 14 14 14 14 14 13 13 13 13 13 13 13 13 12 12 12 12 12 12 12 12 12 11 11 11 11 11
11 12 13 15 16 16 16 17 18 18 17 18 19 19 18 17 16 16 16 17 17 16 15 14 14 14 14 14 13 13 13 13 13 13 13 12 12 12 12 12 11 11 11 11 11 11 11 11 11
11 12 14 15 16 16 16 17 17 18 19 20 21 20 18 17 16 17 17 17 16 15 15 15 14 14 14 14 13 13 13 13 13 13 12 12 12 12 12 12 12 12 12 11 11 11 11 11 11
11 12 14 14 15 15 16 16 17 17 19 19 19 19 18 18 18 18 18 17 16 16 15 15 15 14 14 14 14 13 13 13 13 13 13 12 13 12 12 12 12 12 11 11 11 11 11 11 10
11 11 12 13 14 15 15 15 16 17 18 18 18 18 18 18 18 17 16 16 16 16 16 15 15 15 14 14 14 14 13 13 13 13 13 13 13 12 12 12 12 11 11 11 11 11 11 10 10
11 11 11 12 13 14 15 14 15 17 17 17 17 18 18 18 17 17 17 17 18 17 16 16 16 15 14 14 14 14 14 13 13 13 13 13 12 12 12 12 12 11 11 11 11 10 10 10 10
10 10 10 12 13 14 14 13 15 17 17 16 16 17 17 17 17 18 18 18 18 17 17 16 15 15 15 15 14 14 14 13 13 13 13 13 12 12 12 12 12 11 11 11 11 10 10 10 10
9 9 9 11 13 13 13 13 14 17 16 16 16 16 17 17 17 17 17 18 17 17 17 16 16 15 15 15 14 14 14 13 13 13 13 13 12 12 12 12 12 11 11 11 10 10 10 10 10
8 8 9 10 12 13 12 13 14 16 16 15 16 16 17 17 18 18 17 17 17 17 17 16 16 16 15 14 14 13 13 13 13 13 13 13 12 12 12 12 11 11 11 11 10 10 10 10 10
8 9 9 10 12 12 12 12 13 14 14 14 15 16 16 17 19 18 18 17 17 17 16 16 16 15 15 14 14 13 13 13 13 13 13 13 12 12 12 12 11 11 11 11 10 10 10 10 10
8 8 8 10 11 12 11 12 13 14 14 15 15 16 17 17 18 18 18 17 17 17 17 16 16 16 15 15 15 15 14 13 13 13 13 12 12 12 12 12 11 11 11 10 10 10 10 10 9
8 8 8 9 10 11 11 11 12 13 14 15 16 17 17 18 18 18 18 18 18 17 17 17 17 16 16 15 15 14 13 12 12 12 12 12 12 12 12 12 11 11 11 11 10 10 10 10 10
7 9 9 9 9 9 10 9 11 12 13 14 15 16 17 18 18 18 18 18 18 18 18 18 17 17 16 15 14 14 14 13 14 14 13 13 12 12 12 11 11 11 11 11 10 10 10 10 10
8 9 9 9 9 8 9 9 10 11 12 14 14 16 17 18 18 19 19 19 19 19 18 18 18 17 17 16 15 15 15 15 14 14 13 13 12 12 12 11 11 11 11 11 10 10 10 10 10
8 8 8 8 7 7 8 8 9 11 12 13 14 16 17 18 18 19 19 19 19 19 19 18 18 17 17 16 16 15 15 15 14 14 13 13 13 12 12 12 11 11 11 11 11 10 10 10 10
7 6 6 6 6 7 9 9 9 11 12 13 14 15 17 18 18 18 19 19 19 19 18 18 18 18 17 16 16 16 16 15 15 15 14 14 13 13 13 12 12 11 11 11 11 10 10 10 10
6 6 6 6 6 7 9 9 10 11 12 14 15 16 16 17 18 18 19 19 19 19 19 18 18 18 17 17 16 16 16 15 15 15 14 14 14 14 14 13 12 11 11 11 10 10 10 10 10
6 6 7 6 6 7 8 9 9 10 11 12 13 14 15 16 17 18 18 19 19 19 19 18 18 18 18 17 17 16 16 15 15 15 14 14 14 14 13 13 12 11 11 11 10 10 10 10 10
6 6 6 6 6 7 8 8 9 10 11 12 12 13 14 15 16 17 18 18 18 19 19 18 18 18 18 18 17 16 16 16 15 15 14 14 14 13 13 13 12 11 11 10 10 10 10 10 9
5 6 5 5 6 6 7 8 10 10 11 12 12 13 14 15 16 16 17 17 18 18 18 18 18 18 18 17 17 17 16 16 15 14 14 14 14 13 13 12 12 11 11 10 10 10 10 9 9
5 5 5 5 5 5 6 8 10 10 10 11 11 12 13 14 15 15 16 17 17 17 18 18 17 17 17 17 17 17 16 16 15 15 14 14 13 13 13 12 12 11 11 10 10 10 10 9 9

GEFSSGP_850_meantemp_162.txt.gz
Temperature
14 14 14 14 12 11 12 12 13 14 15 17 18 18 17 18 18 20 22 22 21 20 19 17 16 16 16 16 16 16 16 16 16 16 15 15 15 14 14 14 14 13 13 13 13 13 12 12 12
13 14 14 13 11 12 12 12 13 14 17 18 18 19 18 19 20 21 22 21 20 20 18 17 16 16 16 16 16 15 15 16 15 15 15 15 14 14 14 13 13 13 13 13 12 12 12 12 12
13 13 13 11 11 12 13 13 14 16 17 17 18 18 18 19 20 21 22 21 20 19 18 17 16 16 16 16 15 15 15 15 15 15 15 14 14 14 13 13 13 13 13 13 12 12 12 12 12
13 13 12 11 12 12 13 14 14 15 17 17 17 17 18 19 20 21 21 20 19 18 17 16 16 15 15 15 15 15 15 15 14 14 14 14 14 13 13 13 13 13 13 12 12 12 12 12 12
12 12 11 11 12 12 13 14 15 15 16 17 17 16 18 19 20 20 20 20 19 18 17 16 15 15 15 15 15 15 15 14 14 14 13 13 13 13 13 13 12 12 12 12 12 12 12 12 11
12 11 11 12 12 13 13 15 15 14 15 16 17 16 18 19 19 20 19 19 18 17 16 15 15 15 15 15 14 14 14 14 14 13 13 13 12 12 13 12 12 12 12 12 12 12 11 11 11
11 10 11 12 12 13 14 15 15 14 14 16 17 16 17 18 18 19 18 17 16 16 15 15 15 15 15 14 14 14 14 14 13 13 13 12 12 12 12 12 12 12 11 11 11 11 11 11 11
11 10 11 11 12 13 15 16 16 16 15 17 18 16 17 18 18 17 17 16 15 15 15 14 14 14 14 14 14 14 14 13 13 13 13 12 12 12 12 12 12 11 11 11 11 11 11 11 11
10 10 11 11 12 13 14 15 16 17 17 17 17 18 18 18 17 16 15 14 14 14 14 14 14 14 14 14 13 13 13 13 13 12 12 12 12 12 12 12 11 11 11 11 11 11 11 11 11
9 9 11 12 12 13 14 14 15 15 15 15 16 17 17 17 16 15 15 14 14 14 14 14 14 14 14 13 13 13 13 13 12 12 12 12 12 12 12 11 11 11 11 11 11 11 11 11 11
9 9 11 12 13 13 13 14 15 15 14 15 16 16 16 16 15 14 15 16 16 15 14 14 14 14 13 13 13 13 13 13 12 12 12 12 12 12 12 11 11 11 11 11 11 11 11 11 11
9 9 11 11 12 13 13 13 13 14 15 17 17 17 16 15 14 15 15 15 15 14 14 14 13 13 13 13 13 13 13 13 12 12 12 12 12 12 12 11 11 11 11 11 11 11 11 11 10
8 9 10 11 12 12 12 12 12 13 15 16 16 16 15 15 15 15 15 15 14 14 14 13 13 13 13 13 13 13 13 13 12 12 12 12 12 12 12 11 11 11 11 11 11 11 11 10 10
8 9 9 10 11 11 12 12 12 13 14 15 15 15 15 15 15 14 14 14 14 14 14 13 13 13 13 13 13 13 13 13 12 12 12 12 12 12 12 11 11 11 11 11 11 11 11 10 10
8 8 8 9 10 11 11 11 11 13 14 14 14 15 15 15 15 15 15 15 15 15 14 14 13 13 13 13 13 13 13 13 12 12 12 12 12 12 12 11 11 11 11 11 10 10 10 10 10
7 7 7 9 10 11 11 10 12 13 13 13 14 14 14 14 14 15 15 15 15 15 14 14 13 13 13 13 13 13 13 13 12 12 12 12 12 12 11 11 11 11 11 10 10 10 10 10 10
6 7 7 8 10 10 10 10 11 12 12 12 13 13 14 14 14 14 15 15 15 15 15 14 14 13 13 13 13 13 13 13 12 12 12 12 12 12 11 11 11 11 10 10 10 10 10 10 10
6 6 7 7 9 9 9 9 10 11 11 12 12 13 13 14 15 15 15 15 15 14 14 14 14 13 13 13 12 12 12 12 12 12 12 12 12 12 11 11 11 10 10 10 10 10 10 10 9
6 6 6 7 9 9 9 9 10 10 11 11 11 12 13 14 16 15 15 14 14 14 14 14 14 13 13 13 12 12 12 12 12 12 12 12 12 12 11 11 11 11 10 10 10 10 10 9 9
5 5 6 7 8 9 8 9 10 10 10 11 12 12 13 14 15 15 14 14 14 14 14 14 14 14 14 14 14 13 13 13 13 13 12 12 12 12 12 11 11 11 10 10 10 10 10 9 9
6 5 6 6 7 8 8 8 9 10 11 11 12 13 14 14 15 15 15 15 15 14 15 15 15 14 14 14 13 13 12 12 12 12 12 12 12 12 12 12 11 11 11 10 10 10 10 10 9
5 6 6 7 6 6 7 7 8 9 10 10 11 12 13 14 15 15 15 15 15 16 16 15 15 15 15 14 14 13 13 13 14 14 13 13 12 12 12 12 11 11 11 10 10 10 10 10 9
5 6 6 6 6 5 6 6 7 8 9 10 10 12 13 14 14 15 15 16 16 16 16 16 15 15 15 14 14 14 14 14 14 14 13 13 13 12 12 12 11 11 11 11 10 10 10 10 10
6 5 5 5 5 5 6 6 6 7 9 10 10 12 13 14 14 15 15 16 16 16 16 16 15 15 15 14 14 14 14 14 14 14 14 13 13 13 12 12 12 11 11 11 11 10 10 10 10
5 4 4 4 4 5 6 6 7 8 8 10 10 11 13 13 14 14 15 15 15 15 16 15 15 15 15 15 14 14 14 14 14 14 14 14 14 13 13 13 12 12 11 11 11 10 10 10 10
5 4 4 4 5 5 6 6 7 8 8 9 10 11 12 12 13 14 14 15 15 15 16 16 16 16 15 15 15 15 15 14 14 14 14 14 15 14 14 14 13 12 12 11 11 10 10 10 9
4 4 5 4 4 4 5 6 7 8 8 8 9 10 11 12 12 13 14 14 15 15 16 16 16 16 16 16 15 15 15 15 15 15 14 14 14 14 14 14 13 13 12 11 11 10 10 10 9
4 4 4 4 4 5 5 6 6 7 8 8 8 8 10 11 11 12 13 14 14 15 15 16 16 16 16 16 16 16 15 15 15 15 14 14 15 14 14 14 13 13 12 11 11 10 10 10 10
3 3 3 3 3 4 5 6 7 7 7 7 8 8 9 9 10 11 12 13 14 14 15 15 16 16 16 16 16 16 16 16 15 15 15 14 14 14 14 14 13 13 12 11 11 10 10 10 9
3 3 2 2 2 2 3 5 7 6 6 6 7 8 8 9 9 10 11 12 13 13 14 14 15 15 16 16 16 16 16 15 15 15 15 14 14 14 14 13 13 12 12 11 11 10 10 10 10

GEFSSGP_850_meantemp_168.txt.gz
Temperature
13 13 13 14 17 18 19 21 21 21 22 22 22 22 23 24 25 24 21 21 20 20 19 18 17 17 17 17 16 16 16 16 16 16 16 15 15 15 15 15 14 14 14 13 13 13 13 13 13
12 13 13 15 17 18 20 21 21 21 22 20 20 21 22 23 23 22 21 21 20 19 18 17 17 16 16 16 16 16 16 16 15 15 15 15 15 15 14 14 14 13 13 13 13 13 13 13 13
12 12 14 16 17 19 21 21 21 21 20 20 21 21 22 22 21 20 20 20 19 19 18 17 16 16 16 16 16 16 16 15 15 15 15 15 15 14 14 14 13 13 13 13 13 13 13 13 13
12 12 14 15 17 19 21 21 20 20 20 19 20 21 21 20 19 20 20 20 19 18 17 17 16 16 16 15 16 15 15 15 15 15 15 15 14 14 14 13 13 13 13 13 12 12 12 13 12
11 13 14 15 17 19 20 20 19 20 20 20 20 21 21 19 19 19 19 19 18 17 16 16 16 16 16 15 15 15 15 15 15 15 14 14 14 14 13 13 13 13 13 12 12 12 12 12 12
12 13 14 16 17 19 20 19 19 20 20 19 19 20 20 18 19 19 18 18 17 16 16 16 16 16 15 15 15 15 15 15 14 14 14 14 13 13 13 13 13 12 12 12 12 12 12 12 12
12 13 14 16 17 18 19 19 18 19 20 19 19 20 20 18 18 18 17 16 16 16 15 15 15 15 15 15 15 15 15 14 14 14 14 13 13 13 13 13 12 12 12 12 12 11 11 11 12
11 13 13 15 16 17 19 17 17 18 19 18 18 20 20 17 17 16 15 15 15 15 15 15 15 15 15 15 15 15 14 14 14 14 13 13 13 13 12 12 12 12 12 12 11 11 11 11 11
10 11 13 15 16 17 17 17 16 16 17 17 17 18 17 16 16 15 15 14 15 15 15 15 15 15 15 14 14 14 14 14 13 13 13 13 12 12 12 11 12 11 11 11 11 11 11 11 11
10 11 13 15 16 16 16 16 16 16 17 17 16 16 16 15 15 15 15 15 15 15 14 14 14 14 14 14 14 14 13 13 13 13 12 12 12 11 11 11 11 11 11 11 11 11 11 11 10
11 11 13 14 14 14 14 14 14 16 16 17 16 15 15 14 14 15 15 15 15 14 14 14 14 14 14 14 14 13 13 13 13 12 12 12 11 11 11 11 11 11 10 10 10 10 10 10 10
11 12 12 12 12 12 13 13 14 14 16 16 15 15 14 14 14 14 14 14 14 14 14 14 14 14 14 14 14 13 13 13 13 12 12 12 12 11 11 11 10 10 10 10 10 10 10 10 10
10 11 11 11 11 11 12 12 13 14 14 14 14 14 14 14 14 14 14 14 14 14 14 13 14 14 14 14 14 13 13 13 13 12 12 12 12 11 11 11 11 10 10 10 10 10 10 10 10
10 10 10 11 11 11 11 12 13 14 14 14 14 14 14 14 14 13 13 13 14 14 13 13 13 14 14 14 13 13 13 13 12 12 12 12 11 11 11 11 11 10 10 10 10 10 10 10 10
8 9 10 11 11 11 11 12 13 14 14 14 14 14 13 13 13 13 13 13 14 13 13 13 13 14 13 13 13 13 13 13 12 12 12 12 11 11 11 11 11 10 10 10 10 10 10 10 10
8 9 9 11 11 11 10 11 14 13 13 13 14 14 13 13 13 14 13 13 13 13 13 13 13 13 13 13 13 13 13 12 12 12 12 12 11 11 11 11 11 10 10 10 10 10 10 10 10
8 9 10 11 11 11 10 11 13 13 13 13 13 14 13 13 13 14 13 13 13 13 13 13 13 13 13 13 13 13 12 12 12 12 12 12 11 11 11 11 11 10 10 10 10 10 10 10 10
9 9 9 10 11 10 10 11 12 12 13 13 13 13 13 13 13 13 13 13 13 13 13 13 13 13 13 13 12 12 12 12 12 12 12 12 11 11 11 11 11 10 10 10 10 10 10 10 10
8 8 9 10 10 10 10 11 11 12 13 13 13 13 13 13 13 13 13 12 12 12 12 12 12 13 13 12 12 12 12 12 12 12 12 12 11 11 11 11 11 10 10 10 10 10 10 10 9
7 7 8 9 10 10 10 10 11 12 13 13 13 13 13 13 13 12 12 12 12 12 12 12 12 12 12 13 13 12 12 12 12 12 12 12 11 11 11 11 11 11 10 10 10 10 9 9 9
7 8 8 8 9 10 9 10 12 12 13 13 13 13 13 13 13 12 12 12 12 12 13 13 13 12 13 12 12 12 11 11 11 12 12 12 12 11 11 11 11 11 11 10 10 10 10 10 9
7 8 8 8 8 8 9 9 12 13 12 13 13 13 13 13 12 12 12 12 12 13 13 13 13 12 13 12 12 12 12 12 12 12 12 12 12 12 11 11 11 11 11 11 10 10 10 9 9
8 8 8 8 8 8 9 9 11 12 12 13 13 13 12 12 12 12 12 12 13 13 13 13 13 12 13 12 12 12 12 12 12 12 12 12 12 12 12 11 11 11 11 11 10 10 10 10 9
8 8 8 8 8 7 9 9 11 12 12 12 13 12 12 12 12 12 11 11 12 12 12 13 12 12 12 13 13 12 12 12 12 12 12 12 12 12 12 12 11 11 11 11 11 10 10 10 9
7 7 7 7 7 8 10 9 11 11 11 12 12 12 11 11 11 11 11 11 11 12 12 12 12 12 12 12 12 13 13 12 12 12 12 12 12 12 13 12 12 12 11 11 11 11 10 10 10
7 7 7 7 8 9 9 10 11 10 11 11 11 11 10 10 11 10 11 11 11 12 12 12 13 13 12 13 13 13 13 12 12 12 12 12 12 13 13 13 12 12 12 11 11 10 10 10 10
6 7 7 7 7 7 9 10 10 10 10 10 10 10 9 9 10 10 10 10 11 11 12 12 13 13 13 13 13 13 13 12 13 13 12 12 12 12 13 13 12 12 12 11 11 11 10 10 10
6 6 6 6 6 7 9 9 10 9 9 9 9 9 8 8 9 9 9 10 10 11 11 12 12 13 13 13 13 13 13 13 13 13 12 13 13 12 12 13 12 12 12 11 11 11 10 10 10
5 5 5 6 6 7 8 9 10 9 9 9 9 8 8 8 8 8 9 9 10 10 11 11 12 12 12 13 13 13 13 13 13 13 13 13 13 12 12 13 12 12 12 11 11 11 10 10 10
5 5 5 5 5 6 7 9 9 9 9 9 8 8 7 7 7 8 8 8 9 9 10 10 11 11 12 12 13 13 13 13 13 13 13 13 12 12 12 12 12 12 12 11 11 11 11 10 10

GEFSSGP_850_meantemp_174.txt.gz
Temperature
14 14 14 15 15 16 17 20 22 23 24 25 25 25 25 25 25 23 21 20 20 20 20 19 19 18 17 17 17 17 17 17 17 16 16 16 16 16 15 15 15 15 14 14 14 14 14 14 14
13 14 14 15 15 16 18 20 21 23 24 24 24 24 24 24 24 23 21 20 20 20 19 19 18 18 17 17 17 16 16 16 16 16 16 16 15 15 15 15 15 14 14 14 14 14 14 14 14
13 13 14 15 16 17 19 22 22 23 23 24 24 24 24 24 23 22 21 20 19 19 19 18 18 17 17 17 16 16 16 16 16 16 16 15 15 15 15 14 14 14 14 14 14 13 14 14 14
12 13 14 15 16 18 20 21 22 23 23 23 23 23 23 23 22 21 20 20 19 18 18 18 17 17 17 17 16 16 16 16 16 16 15 15 15 15 14 14 14 14 14 13 13 13 13 13 14
12 14 14 15 16 18 20 21 22 22 22 22 22 22 22 22 21 21 20 19 19 18 17 17 17 17 16 16 16 16 16 16 16 15 15 15 14 14 14 14 14 13 13 13 13 13 13 13 13
13 14 14 15 17 19 20 21 21 21 21 22 21 21 20 21 21 20 19 19 18 18 17 17 16 16 16 16 16 16 16 15 15 15 15 14 14 14 14 13 13 13 13 13 13 13 13 13 13
12 13 14 15 16 17 19 20 20 19 20 20 21 20 20 20 20 19 19 18 17 17 16 16 16 16 16 16 16 16 15 15 15 15 15 14 14 14 13 13 13 13 13 13 13 13 13 13 13
12 12 13 14 16 17 18 18 18 18 18 19 19 19 19 19 18 18 18 17 17 16 16 16 16 16 16 15 15 15 15 15 15 15 14 14 14 13 13 13 13 13 13 13 12 12 12 12 12
11 11 12 14 15 16 17 17 17 17 17 18 18 18 18 18 17 17 17 17 16 16 16 16 15 15 15 15 15 15 15 15 14 14 14 14 13 13 13 12 12 12 12 12 12 12 12 12 12
11 10 12 14 15 15 15 15 15 16 16 17 17 17 17 17 16 16 16 16 16 16 15 15 15 15 15 15 15 15 14 14 14 14 14 13 13 12 12 12 12 12 12 12 12 12 11 12 12
11 11 13 14 14 14 14 14 14 14 14 15 16 15 15 15 15 15 15 16 15 15 15 15 15 15 15 15 14 14 14 14 14 14 13 13 12 12 12 12 12 12 12 12 11 11 11 11 11
11 11 12 13 13 13 13 13 13 13 14 15 15 15 15 15 15 15 15 15 15 15 15 15 15 15 14 15 14 14 14 14 13 13 13 13 12 12 12 12 12 12 11 11 11 11 11 10 11
10 11 12 12 12 12 12 12 13 13 13 14 14 14 14 14 15 15 15 15 15 14 14 14 14 14 14 14 14 14 14 14 14 13 13 12 12 12 12 11 11 11 11 11 11 10 10 10 10
10 10 11 11 11 12 12 12 12 13 13 14 14 14 14 14 14 14 14 14 14 14 14 14 14 14 14 14 14 14 13 13 13 13 13 12 12 12 12 11 11 11 11 11 10 10 10 10 10
9 9 10 11 11 12 12 11 12 13 13 13 13 13 13 14 14 14 14 14 14 14 14 14 14 14 14 14 14 14 13 13 13 13 13 12 12 12 12 11 11 11 11 11 10 10 10 10 10
9 9 9 11 12 12 11 10 12 13 13 13 13 13 13 14 14 14 14 14 14 14 14 14 14 14 14 13 13 13 13 13 13 13 13 12 12 12 12 11 11 11 11 10 10 10 10 10 10
8 8 9 10 12 12 11 10 12 13 13 13 13 13 13 13 14 14 14 14 14 14 14 13 14 13 13 13 13 13 13 13 13 13 13 12 12 12 12 11 11 11 11 11 10 10 10 10 10
8 8 9 9 11 11 10 10 12 13 13 12 12 12 13 13 14 14 14 14 14 13 13 13 13 13 13 13 13 13 13 13 13 13 13 12 12 12 12 11 11 11 11 11 11 10 10 10 10
8 8 8 9 11 10 10 10 11 12 12 12 12 12 13 13 14 14 14 14 13 13 13 13 13 13 13 13 13 12 12 12 12 12 12 12 12 12 12 11 11 11 11 11 11 10 10 10 10
8 8 8 9 10 10 10 10 11 12 12 12 12 12 12 12 13 14 13 13 13 13 13 12 12 12 12 12 12 13 13 13 13 12 12 12 12 12 12 11 11 11 11 10 10 10 10 10 10
8 8 8 9 9 10 9 9 11 12 12 12 12 12 12 12 12 13 13 12 12 12 12 12 12 12 12 12 12 12 12 12 12 12 12 12 12 12 12 12 11 11 11 11 11 10 10 10 10
7 9 9 9 8 8 9 8 10 11 12 12 12 12 12 12 12 12 12 12 12 12 12 12 12 12 12 12 12 12 12 12 12 12 12 12 12 12 12 12 11 11 11 11 11 11 11 10 10
8 9 8 8 7 7 8 8 9 11 11 11 11 11 11 11 12 11 11 11 11 11 11 11 11 11 11 12 12 12 12 12 12 12 12 12 12 12 12 12 12 11 11 11 11 11 10 10 11
9 8 8 8 7 7 8 8 9 10 10 10 11 11 11 11 11 11 11 11 11 11 11 11 11 11 11 11 12 12 12 12 12 12 12 12 12 12 12 12 12 12 11 11 11 11 11 10 10
8 6 5 6 6 7 10 9 9 11 11 11 10 11 10 10 11 11 10 10 10 10 10 10 11 11 11 11 12 12 12 12 12 12 12 12 12 12 12 12 12 12 12 11 11 11 11 10 10
7 6 5 5 6 7 9 9 9 11 11 11 11 10 10 10 10 10 10 10 10 10 10 10 10 11 11 11 11 12 12 12 12 12 12 12 12 12 12 12 12 12 12 11 11 11 11 10 10
6 6 7 6 6 6 8 9 10 11 10 10 10 10 10 9 10 10 9 9 9 9 10 10 10 10 10 11 11 12 12 12 12 12 12 12 12 12 12 12 12 11 11 11 11 11 11 11 10
7 6 6 5 5 6 7 8 9 9 9 9 9 9 9 9 9 9 9 9 9 9 9 9 10 10 10 10 11 11 12 12 12 12 12 12 12 11 12 11 12 11 11 11 11 11 11 10 10
6 6 6 5 6 5 6 7 9 9 9 9 9 9 9 9 9 9 9 9 9 9 9 9 9 9 10 10 10 11 11 11 12 12 12 12 11 11 12 12 12 11 11 11 11 11 11 10 10
6 6 5 4 4 5 5 6 9 9 9 9 9 9 9 8 8 8 8 8 8 8 8 8 9 9 9 10 10 10 11 11 11 11 12 11 11 11 11 11 11 11 11 11 11 11 11 11 10